Regional Weather Roundup
Issued by NWS Upton, NY

Current Version | Previous Version | Text Only | Print | Product List | Glossary On
Versions: 1 2 3 4 5 6 7 8 9 10 11 12 13 14 15 16 17 18 19 20 21 22 23 24 25 26 27 28 29 30 31 32 33 34 35 36 37 38 39 40 41 42 43 44 45 46 47 48 49 50
000
ASUS41 KOKX 302105
RWROKX
REGIONAL WEATHER ROUNDUP
NATIONAL WEATHER SERVICE NEW YORK NY
500 PM EDT WED JUL 30 2014

NOTE: "FAIR" INDICATES FEW OR NO CLOUDS BELOW 12,000 FEET WITH NO
SIGNIFICANT WEATHER AND/OR OBSTRUCTIONS TO VISIBILITY.

NYZ071-072-176-178-NJZ106-104-302200-
NEW YORK CITY METRO AREA


CITY           SKY/WX    TMP DP  RH WIND       PRES   REMARKS
CENTRAL PARK   PTSUNNY   77  53  43 VRB3      30.03R
LAGUARDIA APRT MOSUNNY   80  47  31 W12G18    30.00R
KENNEDY INTL   MOSUNNY   77  53  43 S14       30.02R
NEWARK/LIBERTY PTSUNNY   81  49  32 W9        30.00S
BRNX BOT. GARD   N/A     77  48  36 SW6       30.01R
TETERBORO      PTSUNNY   81  49  32 W9        29.99S
$$

NYZ177-179-078>081-302200-
LONG ISLAND NEW YORK

CITY           SKY/WX    TMP DP  RH WIND       PRES   REMARKS
FARMINGDALE    SUNNY     76  51  41 SW13      30.01R
ISLIP          MOSUNNY   78  53  41 SW10      30.00S
SHIRLEY        SUNNY     77  50  38 S10       30.02S
WESTHAMPTON    MOSUNNY   76  52  43 S10       30.03S
MONTAUK POINT    N/A     75  58  55 VRB6      30.03S
$$

NYZ052-065-067-302200-
HUDSON VALLEY

CITY           SKY/WX    TMP DP  RH WIND       PRES   REMARKS
WHITE PLAINS   MOSUNNY   77  48  35 CALM      30.00S
NEWBURGH       MOSUNNY   73  54  49 W7        30.02R
MONTGOMERY     PTSUNNY   78  55  44 SW9       30.00R
POUGHKEEPSIE   MOSUNNY   78  50  37 SW8       29.99R
ALBANY         PTSUNNY   76  53  44 SW8       29.98S
$$

NJZ001-105-106-008-010-013-015-019>022-104-302200-
NEW JERSEY

CITY           SKY/WX    TMP DP  RH WIND       PRES   REMARKS
NEWARK/LIBERTY PTSUNNY   81  49  32 W9        30.00S
TETERBORO      PTSUNNY   81  49  32 W9        29.99S
CALDWELL       SUNNY     76  50  40 VRB5      30.01S
MORRISTOWN     MOSUNNY   79  52  38 W13       30.01S
SOMERVILLE     SUNNY     78  52  40 VRB3      30.00S
LINDEN         FAIR      81  50  33 NW9       30.02S
SUSSEX         MOSUNNY   77  54  44 S6        30.01S
ANDOVER          N/A     75  53  46 SW5       30.02S
TRENTON        MOSUNNY   78  49  35 W8        30.01S
MILLVILLE      SUNNY     76  53  44 VRB6      30.04S
ATLANTIC CITY  MOSUNNY   80  50  34 MISG      30.02S
WRIGHTSTOWN    MOSUNNY   77  50  38 SW7       30.00S
TOMS RIVER     PTSUNNY   81  46  30 CALM      30.02S
BELMAR         MOSUNNY   75  54  46 SE8       30.03R
$$

PAZ047>061-062-071-302200-
EASTERN PENNSYLVANIA

CITY           SKY/WX    TMP DP  RH WIND       PRES   REMARKS
PHILADELPHIA   MOSUNNY   78  51  38 SW8       30.03S
ALLENTOWN      MOSUNNY   77  54  44 W9        30.02S
SCRANTON       PTSUNNY   77  50  38 W10       30.01S
$$

CTZ002-004>006-009-010-012-RIZ004-006-007-MAZ004-011-015-302200-
SOUTHERN NEW ENGLAND
 IN CT

CITY           SKY/WX    TMP DP  RH WIND       PRES   REMARKS
BRADLEY INTL   MOSUNNY   79  48  33 W3        29.98S
HARTFORD       MOSUNNY   78  48  34 SW7       29.98S
DANBURY        MOSUNNY   75  50  41 W5        30.02S
WTRBRY/OXFORD  MOSUNNY   75  50  41 NW5       30.04S
BRIDGEPORT     SUNNY     79  50  36 SW10      30.00S
MERIDEN        MOSUNNY   78  47  33 VRB6      30.00R
NEW HAVEN      MOSUNNY   77  54  44 S8        30.01S
CHESTER        FAIR      73  50  43 S8        30.02R
GROTON         SUNNY     73  62  68 S12       30.00S
WILLIMANTIC    MOSUNNY   78  50  37 W8        29.99S

 IN RI

CITY           SKY/WX    TMP DP  RH WIND       PRES   REMARKS
PROVIDENCE     MOSUNNY   76  54  46 S12       29.99S
BLOCK ISLAND   SUNNY     73  55  53 SW10      30.02S
WESTERLY       SUNNY     76  58  53 S10       30.01S

 IN MA

CITY           SKY/WX    TMP DP  RH WIND       PRES   REMARKS
BOSTON         MOSUNNY   73  56  54 E10       29.98S
WORCESTER      SUNNY     73  48  41 W6        30.01S
WESTFIELD      PTSUNNY   78  48  34 SW7       29.99R
PROVINCETOWN   SUNNY     79  54  41 SW6       29.99S
NANTUCKET      SUNNY     72  60  66 SW10      30.01S
$$

ANZ330-335-338-340-345-350-353-355-302200-
COASTAL MARINE OBSERVATIONS


STATION/POSITION TIME  SKY/WX   TEMP    WIND        PRES    VSBY  WAVE
                                AIR SEA DIR/SP/G                  HT/PER
                 (UTC)          (F)     (DEG/KT/KT) (MB)    (MI)  (FT/S)
NY HARB ENTRANCE NOT AVBL
4S FIRE IS       NOT AVBL
23SW MTP         2100            73 71              1016.2          3/ 8
HUDSON CANYON    2100            72 76  310/  4/  8 1017.0          3/ 8
EXECUTION ROCKS  2100            78 74  190/  4/  6   N/A
WESTERN LI SOUND 2100            77      70/  2/  4   N/A           1
CENTRAL LI SOUND 2000            74 73  250/ 10/ 12   N/A           0
EASTERN LI SOUND 2000            71 68  180/ 10/ 12   N/A
ROBBINS REEF     2100            77     230/  9/ 12   N/A
$$


>>>>>>>>>>>>>>>>>>>>>>>>>>>> KEY <<<<<<<<<<<<<<<<<<<<<<<<<<<
>                                                          <
>     SKY/WX - SKY CONDITION/PRESENT WEATHER               <
>     TMP    - TEMPERATURE IN FAHRENHEIT                   <
>     DP     - DEWPOINT IN FAHRENHEIT                      <
>     RH     - RELATIVE HUMIDITY IN PERCENT                <
>     WIND   - DIRECTION AND SPEED IN MPH                  <
>     PRES   - MEAN SEA LEVEL PRESSURE IN INCHES OF HG     <
>     WCI    - WIND CHILL INDEX                            <
>     VSB    - VISIBILITY IN MILES                         <
>     HX     - HEAT INDEX                                  <
>     TC     - TEMPERATURE IN CELSIUS                      <
>     VRB    - VARIABLE WIND DIRECTION                     <
>                                                          <
>>>>>>>>>>>>>>>>>>>>>>>>>>>> KEY <<<<<<<<<<<<<<<<<<<<<<<<<<<




USA.gov is the U.S. government's official web portal to all federal, state and local government web resources and services.